Wind_Speed
2 2 3 3 3 3 3 3 3 2 2 2 2 2 2 2 2 3 3 4 4 5 5 4 5 5 5 4 4 4 5 5 5 5 5 6 6 6 6 6 6 5 5 6 6 6 7 6 7
2 3 3 3 3 3 3 3 3 2 2 2 2 2 3 3 3 3 4 4 4 4 5 5 5 5 5 5 4 5 5 5 5 6 6 6 6 7 6 6 6 6 6 6 6 6 7 7 8
2 3 3 3 3 3 3 2 2 2 2 2 2 2 3 3 3 3 4 5 5 4 5 5 5 5 5 5 5 5 5 6 6 6 6 6 7 7 7 6 6 6 6 7 7 7 8 8 9
3 3 3 3 3 3 2 2 2 2 2 3 3 3 3 3 4 4 5 5 5 5 5 6 5 5 5 5 5 6 6 6 6 7 6 6 7 7 7 7 7 7 7 8 8 8 8 9 10
3 3 3 2 3 3 2 2 2 2 2 3 3 3 4 4 4 5 5 5 5 5 5 6 5 5 5 5 6 6 6 6 6 6 7 7 7 7 8 8 8 8 8 9 9 10 10 10 10
4 3 2 2 2 3 3 2 3 3 3 3 3 4 4 4 5 5 5 6 5 5 6 6 5 5 5 6 6 6 6 6 6 6 6 7 7 7 8 8 8 8 8 9 9 10 10 11 10
4 3 2 2 3 3 3 3 4 4 3 3 3 4 4 5 5 6 6 7 7 6 6 6 6 6 6 6 6 6 6 6 6 6 7 7 7 8 9 9 8 8 9 10 9 10 10 10 10
4 4 4 3 3 4 3 4 4 4 4 4 4 4 5 6 6 6 7 8 7 7 6 6 6 6 6 6 6 6 6 7 7 6 6 7 7 8 8 9 8 8 9 9 10 11 10 9 9
5 5 5 4 4 4 4 4 4 4 4 4 5 5 5 6 7 7 7 7 7 7 6 6 6 6 6 7 7 7 7 7 7 7 7 7 8 8 8 8 8 8 8 9 9 10 9 9 9
5 5 6 5 5 5 5 4 4 5 5 5 5 6 6 6 7 7 7 7 7 7 7 7 6 6 6 6 7 7 7 7 7 6 7 7 8 8 8 9 9 9 9 9 9 10 10 10 10
5 5 6 6 6 5 5 5 5 5 5 5 5 5 6 6 6 7 7 7 7 6 6 6 6 6 6 7 7 7 8 7 7 7 7 8 8 9 9 10 9 9 9 9 9 10 10 10 10
6 6 6 7 6 6 5 6 6 5 5 5 6 6 6 6 7 7 7 7 6 6 6 6 6 6 7 7 8 8 8 7 7 7 8 8 9 9 9 10 9 9 9 9 9 9 9 9 9
7 7 7 7 7 6 6 6 6 6 5 6 6 6 6 6 7 7 7 6 6 6 6 6 6 7 7 7 8 8 8 8 7 7 8 8 8 7 8 9 9 9 9 8 8 8 9 9 9
8 8 8 8 7 7 7 6 6 6 7 6 6 6 6 7 7 7 7 6 6 7 7 7 7 7 8 7 7 8 8 8 9 8 8 8 8 7 7 7 8 8 8 8 8 8 8 9 9
8 8 8 8 9 9 9 8 7 7 8 7 7 7 7 7 7 7 7 7 7 7 7 7 7 8 8 8 8 8 8 9 9 8 8 8 8 8 7 7 7 7 8 8 8 8 9 9 9
8 7 8 8 9 9 9 9 8 8 8 8 8 7 7 6 7 8 7 7 7 7 7 7 7 8 8 8 9 9 9 9 8 8 8 8 8 7 7 6 7 7 7 7 8 8 8 9 9
8 8 8 8 9 9 9 9 9 9 9 8 8 7 7 7 7 8 7 7 7 7 7 7 7 7 8 8 9 9 9 8 8 8 8 7 7 6 6 6 6 7 7 7 7 7 7 8 8
9 9 8 8 8 9 8 8 9 9 9 8 8 8 8 7 7 7 7 8 8 8 7 7 7 7 8 8 8 8 8 8 8 8 7 7 7 6 6 6 6 6 7 7 7 7 7 7 8
10 9 9 9 9 8 8 7 8 8 9 9 8 8 8 7 7 7 7 8 8 8 8 7 7 8 8 8 8 8 8 8 8 7 7 7 7 6 6 6 6 6 6 7 7 7 7 7 8
10 10 9 10 10 9 8 8 8 8 9 9 9 8 7 7 7 7 7 8 8 8 7 7 7 7 7 7 8 8 8 7 7 7 7 6 6 6 6 7 7 7 6 6 7 7 7 7 8
11 11 11 11 10 10 9 8 9 8 9 8 8 8 8 7 7 7 8 8 7 8 7 7 6 7 7 7 7 7 7 7 6 6 6 6 6 6 6 6 6 6 6 6 6 6 7 7 8
12 12 12 12 12 11 10 10 9 9 9 9 8 8 8 8 7 8 8 8 7 7 7 6 7 7 7 7 7 7 7 6 6 6 6 6 6 5 6 6 6 6 6 6 6 6 7 8 8
13 13 13 13 13 13 12 11 9 9 9 9 8 8 8 8 8 8 8 8 7 7 7 7 7 7 7 7 7 7 7 6 6 5 5 5 5 5 5 5 6 6 5 5 6 6 7 8 8
15 15 15 15 15 14 13 13 11 10 9 9 9 8 9 8 8 8 8 8 8 8 7 7 7 7 7 7 7 7 7 6 6 6 6 6 5 5 5 5 5 5 5 6 6 7 7 8 8
16 16 16 16 16 15 14 14 11 10 10 10 10 9 9 9 9 8 8 9 8 8 7 7 7 7 7 7 7 8 7 7 7 7 6 6 6 6 5 5 6 6 6 6 7 7 7 7 8
16 16 17 17 17 16 15 15 12 11 11 12 11 11 10 10 10 10 10 10 9 8 8 8 8 8 8 8 8 8 7 7 7 7 7 7 7 7 6 7 7 7 7 7 7 7 7 8 8
18 18 17 18 18 17 17 16 14 13 12 13 13 12 11 11 11 11 11 10 9 9 8 8 9 8 8 8 9 8 7 7 7 7 8 8 8 8 7 8 8 8 8 8 7 8 8 8 8
19 19 19 19 20 19 18 17 15 14 14 13 13 13 13 12 12 12 12 11 10 9 9 9 9 8 8 8 8 8 7 8 7 7 7 7 8 8 8 8 8 8 8 8 8 8 8 8 8
20 20 20 20 21 21 19 18 16 14 14 14 14 15 14 14 13 13 13 12 11 10 10 10 9 9 9 8 8 8 8 8 8 8 8 8 8 9 9 9 9 8 8 9 9 8 8 8 8
21 22 22 22 22 21 20 18 16 16 16 15 16 16 16 15 15 14 13 13 12 11 11 10 10 10 10 10 10 10 10 10 10 9 9 9 9 9 9 9 9 9 9 9 9 9 9 9 9
Wind_Direction
310 309 311 306 311 315 321 328 314 330 331 325 330 340 352 340 339 333 332 317 313 310 300 299 305 303 301 303 310 313 306 302 291 287 286 280 280 286 288 289 283 280 281 279 264 259 260 257 258
298 297 302 303 314 327 322 324 331 335 344 335 329 340 349 344 343 341 337 331 325 318 310 309 309 314 311 301 302 302 297 293 290 285 281 279 277 281 284 284 282 281 279 274 264 257 257 258 257
290 294 303 300 313 324 321 316 324 341 337 339 334 338 342 337 345 343 337 333 327 322 314 308 308 309 306 304 303 299 293 289 285 283 279 277 275 277 282 276 273 271 272 274 268 262 256 257 257
289 295 295 303 313 314 320 326 323 329 329 329 329 327 330 329 335 335 335 334 331 325 318 314 311 306 299 297 297 299 295 292 288 286 283 278 275 273 277 270 269 270 274 276 273 268 266 265 264
284 292 295 302 309 304 297 306 312 303 312 322 326 322 320 323 329 333 333 329 326 323 320 318 316 305 298 300 299 299 298 295 292 289 286 280 277 276 280 278 273 273 274 275 276 274 269 268 269
286 299 306 310 310 314 308 301 309 316 314 321 326 322 315 315 317 324 327 322 317 314 311 314 314 307 301 299 299 298 301 300 295 289 285 284 282 282 282 281 274 271 270 269 271 272 272 272 266
284 297 304 300 302 308 310 310 312 313 307 309 314 314 307 311 311 314 316 317 316 312 306 309 312 311 305 300 298 298 298 301 299 293 287 284 282 279 278 278 281 277 272 270 265 267 270 270 264
280 285 289 295 296 294 297 308 318 316 307 313 314 315 312 308 308 309 309 311 311 308 304 307 312 310 305 302 298 298 294 297 299 297 290 285 283 282 283 280 282 280 275 268 266 267 267 266 260
279 278 284 289 296 296 297 305 313 321 315 310 310 312 317 316 307 304 306 309 308 306 306 306 310 310 305 301 300 300 298 295 297 297 296 292 287 285 286 281 278 277 273 271 271 267 265 263 258
284 279 279 280 287 291 295 302 309 314 315 315 315 314 309 314 316 309 305 306 303 302 302 304 306 308 307 304 303 303 304 301 298 299 299 298 293 286 278 279 278 274 271 271 270 265 263 263 260
284 280 280 280 283 287 291 296 304 306 311 316 318 319 317 315 316 313 308 304 299 296 298 301 306 307 306 305 305 307 304 304 300 299 299 297 294 288 281 279 279 274 271 268 265 263 262 262 261
284 283 281 279 281 286 290 295 298 302 310 310 312 315 314 314 319 318 312 306 301 300 300 302 303 304 304 305 305 307 306 303 300 298 299 301 297 289 283 281 280 275 269 266 263 262 262 262 265
279 280 278 278 281 285 286 291 296 302 307 310 309 312 313 312 314 314 311 307 307 303 302 301 299 297 300 301 302 305 305 302 300 299 300 302 301 290 287 282 281 279 275 274 268 264 262 263 265
277 277 278 278 280 280 282 289 294 299 302 305 308 310 311 310 311 313 312 306 304 304 301 300 300 300 302 303 303 303 305 303 303 302 300 299 298 298 294 285 279 278 275 271 264 260 261 264 263
275 274 274 273 276 279 281 283 288 294 300 302 302 303 305 306 309 314 314 309 306 305 301 302 299 298 300 301 301 302 303 302 302 299 297 295 293 293 289 287 285 286 280 272 267 265 265 268 267
274 278 279 274 275 278 279 281 283 286 291 295 298 300 299 301 304 309 313 312 310 307 304 301 298 298 300 299 301 303 304 302 299 298 294 292 291 289 284 284 288 287 282 274 271 271 271 271 270
274 276 282 280 277 277 280 282 279 280 283 289 294 298 299 296 298 303 308 312 313 310 307 303 303 300 301 303 301 302 304 301 299 298 295 292 287 286 286 281 280 284 283 278 275 274 275 274 272
271 270 273 275 276 277 279 283 280 282 284 287 290 294 299 296 297 302 307 312 313 311 310 308 305 305 304 306 306 306 306 304 299 298 294 292 289 285 285 283 281 281 282 280 275 274 276 277 278
266 268 271 276 277 276 280 286 285 285 285 286 289 292 295 296 298 304 309 314 314 310 308 307 305 308 308 307 307 310 311 305 298 296 295 291 290 287 286 285 290 287 285 284 281 276 276 278 279
266 269 274 278 279 280 282 285 286 284 284 287 288 289 291 292 296 301 306 314 316 314 310 308 308 309 310 308 309 312 312 307 296 293 296 295 292 289 293 286 287 285 283 283 280 275 277 278 282
268 270 272 276 278 278 281 280 280 283 283 286 288 288 290 291 294 301 304 306 310 313 310 306 305 306 312 311 311 314 313 307 295 292 293 294 296 292 294 297 297 290 278 276 279 278 278 281 286
265 267 270 273 276 277 278 278 278 280 282 285 289 289 291 293 294 298 300 302 303 308 308 304 304 305 309 315 317 318 316 308 297 296 294 294 297 296 296 293 299 297 287 282 281 278 278 282 285
262 262 266 269 274 275 274 275 277 280 280 282 286 289 290 291 294 296 295 296 298 301 301 301 303 304 309 310 313 313 310 306 298 293 289 292 298 298 301 299 304 304 291 284 284 281 285 288 286
262 262 265 267 270 271 271 274 277 277 279 278 279 284 289 291 292 293 293 293 293 294 296 298 301 302 302 304 307 307 304 301 297 292 288 292 298 302 303 302 302 301 296 285 286 286 286 290 285
263 264 268 268 269 272 272 271 278 279 277 276 276 280 286 290 290 290 290 291 289 288 290 293 295 294 293 296 299 300 300 297 291 289 287 292 295 296 299 301 300 297 291 289 290 288 288 288 284
264 264 267 270 271 272 272 271 275 279 276 273 273 277 282 287 288 289 290 290 287 282 283 290 294 291 288 291 294 296 295 293 286 286 285 291 292 292 292 291 292 293 292 293 290 287 286 288 285
261 262 265 268 270 272 271 271 270 273 274 272 272 275 280 284 287 287 286 286 283 278 277 284 291 291 286 287 290 287 286 287 287 286 285 287 289 290 289 286 288 289 288 290 290 287 286 285 285
261 263 262 264 267 268 269 268 268 267 272 272 270 272 275 280 283 282 281 281 280 276 273 277 283 287 286 286 288 287 287 285 287 288 287 285 287 290 290 284 287 289 286 286 287 285 287 285 287
261 261 263 264 266 268 270 266 268 267 268 267 266 268 273 277 278 276 277 278 279 276 274 275 276 280 283 282 281 281 284 285 284 286 286 286 288 289 286 280 282 286 288 288 286 287 282 281 283
262 261 262 262 264 267 270 269 268 266 266 266 264 265 267 271 274 272 272 274 275 272 270 272 275 277 280 280 278 279 279 282 282 279 282 286 287 289 284 280 279 280 283 286 286 287 285 282 277
Height
5872 5872 5872 5873 5874 5873 5872 5872 5871 5871 5871 5871 5871 5871 5871 5871 5871 5873 5871 5869 5868 5868 5868 5868 5868 5867 5867 5867 5866 5866 5866 5866 5865 5865 5865 5865 5865 5865 5865 5865 5865 5866 5866 5866 5866 5867 5867 5867 5868
5872 5872 5873 5874 5873 5872 5872 5872 5871 5871 5871 5871 5871 5871 5870 5870 5870 5870 5869 5868 5868 5868 5867 5867 5867 5866 5866 5866 5865 5865 5865 5865 5865 5864 5864 5864 5864 5864 5864 5864 5864 5865 5865 5865 5865 5866 5866 5866 5866
5872 5873 5874 5873 5872 5872 5872 5872 5871 5871 5871 5871 5871 5871 5870 5870 5869 5869 5868 5868 5867 5867 5867 5866 5866 5865 5865 5865 5864 5864 5864 5864 5863 5863 5863 5863 5863 5863 5863 5863 5863 5863 5863 5863 5864 5864 5864 5865 5865
5873 5873 5874 5873 5872 5873 5872 5872 5872 5871 5871 5871 5871 5871 5870 5870 5869 5868 5868 5867 5867 5866 5866 5865 5865 5864 5864 5864 5863 5863 5863 5862 5862 5862 5862 5861 5861 5861 5861 5861 5862 5862 5862 5862 5862 5862 5862 5862 5862
5872 5873 5873 5872 5872 5872 5872 5872 5872 5872 5871 5871 5871 5870 5870 5869 5868 5868 5867 5867 5866 5866 5865 5864 5864 5863 5863 5863 5862 5862 5861 5861 5861 5860 5860 5860 5860 5860 5860 5860 5860 5860 5861 5861 5860 5860 5861 5860 5859
5872 5872 5873 5872 5872 5872 5872 5872 5872 5871 5871 5870 5870 5870 5869 5869 5868 5867 5867 5866 5865 5865 5864 5863 5863 5862 5862 5861 5861 5861 5860 5860 5859 5859 5859 5859 5858 5858 5858 5858 5858 5859 5859 5859 5859 5858 5859 5858 5856
5872 5872 5872 5872 5872 5872 5872 5871 5871 5871 5870 5870 5870 5869 5868 5868 5867 5866 5866 5865 5864 5864 5863 5862 5862 5861 5860 5860 5860 5859 5859 5858 5858 5858 5857 5857 5857 5857 5857 5857 5857 5857 5857 5857 5857 5857 5857 5856 5856
5871 5872 5871 5872 5872 5872 5871 5871 5870 5870 5869 5869 5869 5868 5868 5867 5866 5865 5865 5864 5863 5863 5862 5861 5860 5860 5859 5859 5858 5858 5857 5857 5857 5856 5856 5855 5855 5855 5855 5855 5855 5855 5855 5855 5855 5855 5855 5855 5855
5871 5872 5871 5871 5871 5871 5870 5870 5870 5869 5869 5868 5868 5867 5867 5866 5865 5864 5864 5863 5862 5861 5861 5860 5859 5859 5858 5857 5857 5856 5856 5855 5855 5855 5854 5854 5854 5854 5853 5853 5853 5853 5853 5853 5853 5853 5853 5853 5854
5870 5870 5870 5870 5870 5870 5869 5869 5869 5868 5868 5867 5867 5866 5866 5865 5864 5863 5862 5861 5861 5860 5859 5859 5858 5857 5857 5856 5856 5855 5854 5854 5854 5853 5853 5853 5852 5852 5852 5851 5851 5851 5851 5851 5851 5851 5851 5852 5852
5869 5869 5869 5869 5869 5869 5869 5868 5868 5868 5867 5866 5866 5865 5865 5864 5863 5862 5861 5860 5859 5859 5858 5857 5857 5856 5855 5855 5854 5854 5853 5852 5852 5852 5851 5851 5851 5850 5850 5850 5849 5849 5849 5849 5849 5849 5849 5850 5850
5868 5868 5868 5868 5868 5868 5868 5867 5867 5867 5866 5865 5865 5864 5863 5863 5862 5861 5860 5859 5858 5857 5857 5856 5855 5855 5854 5854 5853 5852 5852 5851 5850 5850 5850 5849 5849 5848 5848 5848 5847 5847 5847 5847 5847 5847 5847 5848 5848
5867 5867 5867 5867 5867 5867 5866 5866 5866 5865 5865 5864 5864 5863 5862 5861 5861 5860 5858 5857 5857 5856 5855 5855 5854 5853 5853 5852 5852 5851 5850 5849 5849 5848 5848 5847 5847 5846 5846 5846 5845 5845 5845 5845 5845 5845 5845 5846 5846
5866 5866 5866 5865 5865 5865 5865 5865 5865 5864 5863 5863 5862 5862 5861 5860 5859 5858 5857 5856 5855 5855 5854 5853 5853 5852 5851 5850 5850 5849 5849 5848 5847 5847 5846 5845 5845 5845 5844 5844 5843 5843 5843 5843 5843 5843 5843 5844 5844
5864 5865 5865 5864 5864 5864 5864 5864 5863 5863 5862 5862 5861 5860 5859 5859 5858 5857 5856 5855 5854 5853 5852 5852 5851 5850 5850 5849 5848 5848 5847 5846 5845 5845 5844 5844 5843 5843 5842 5842 5842 5841 5841 5841 5841 5841 5841 5842 5842
5863 5863 5863 5863 5862 5862 5864 5863 5862 5861 5860 5860 5859 5859 5858 5857 5856 5855 5854 5853 5853 5852 5851 5850 5849 5849 5848 5847 5846 5846 5845 5844 5843 5843 5842 5842 5841 5841 5840 5840 5840 5839 5839 5839 5839 5839 5839 5840 5840
5861 5862 5861 5861 5860 5860 5860 5860 5860 5859 5859 5858 5858 5857 5856 5856 5855 5854 5853 5852 5851 5850 5849 5849 5848 5847 5846 5846 5845 5844 5843 5842 5842 5841 5840 5840 5839 5839 5839 5838 5838 5838 5838 5838 5838 5838 5838 5837 5837
5860 5860 5859 5859 5859 5858 5858 5858 5858 5857 5857 5856 5856 5855 5855 5854 5853 5852 5851 5850 5849 5848 5848 5847 5846 5846 5845 5844 5843 5842 5841 5840 5840 5839 5839 5838 5838 5837 5837 5837 5837 5836 5836 5836 5836 5836 5836 5836 5836
5857 5858 5858 5858 5857 5857 5857 5856 5856 5855 5855 5855 5854 5854 5853 5852 5852 5850 5850 5849 5848 5847 5846 5845 5845 5844 5843 5842 5842 5841 5840 5839 5838 5837 5837 5837 5836 5836 5836 5835 5835 5835 5834 5834 5834 5834 5834 5834 5834
5855 5856 5856 5856 5855 5855 5855 5855 5854 5854 5853 5853 5852 5852 5851 5851 5850 5849 5848 5847 5846 5845 5844 5844 5843 5842 5842 5841 5840 5839 5838 5837 5837 5836 5835 5835 5835 5834 5834 5834 5834 5833 5833 5832 5832 5832 5832 5832 5832
5853 5853 5854 5854 5853 5853 5853 5853 5853 5852 5851 5851 5851 5850 5850 5849 5848 5848 5847 5846 5845 5844 5843 5842 5841 5841 5840 5839 5838 5837 5836 5836 5835 5835 5834 5834 5833 5833 5833 5832 5832 5832 5831 5831 5831 5830 5830 5830 5830
5850 5851 5851 5851 5850 5850 5851 5851 5851 5850 5850 5849 5849 5848 5848 5847 5846 5846 5845 5844 5843 5842 5842 5841 5840 5839 5838 5837 5837 5836 5835 5834 5834 5833 5833 5832 5832 5832 5831 5831 5831 5830 5830 5829 5829 5829 5828 5828 5828
5848 5848 5848 5848 5847 5848 5848 5848 5849 5848 5848 5847 5847 5846 5846 5845 5844 5844 5843 5842 5841 5841 5840 5839 5838 5838 5837 5836 5835 5834 5834 5833 5832 5832 5831 5831 5831 5831 5830 5830 5829 5829 5828 5828 5827 5827 5827 5826 5826
5844 5844 5844 5844 5844 5845 5845 5845 5846 5846 5846 5845 5845 5845 5844 5843 5842 5842 5841 5840 5839 5839 5838 5838 5837 5836 5835 5834 5834 5833 5832 5831 5831 5831 5830 5830 5830 5829 5829 5828 5828 5828 5827 5827 5826 5825 5825 5824 5824
5841 5841 5841 5841 5841 5841 5842 5842 5844 5843 5843 5843 5843 5842 5842 5841 5840 5839 5839 5838 5837 5837 5836 5836 5835 5834 5833 5833 5832 5831 5831 5830 5830 5829 5829 5828 5828 5828 5827 5827 5827 5826 5826 5825 5824 5824 5823 5823 5822
5836 5837 5838 5838 5837 5838 5838 5838 5841 5840 5840 5840 5840 5840 5839 5838 5838 5837 5836 5835 5835 5834 5834 5833 5833 5832 5832 5831 5830 5829 5829 5828 5828 5828 5827 5827 5826 5826 5826 5825 5825 5824 5824 5823 5823 5822 5821 5821 5820
5832 5832 5833 5833 5833 5833 5834 5835 5836 5836 5836 5836 5836 5836 5836 5836 5835 5834 5834 5833 5832 5832 5831 5831 5830 5830 5829 5829 5828 5827 5827 5826 5826 5826 5825 5825 5825 5824 5824 5823 5823 5823 5822 5821 5821 5820 5819 5819 5819
5828 5828 5829 5829 5828 5828 5829 5830 5832 5833 5833 5833 5833 5833 5833 5833 5832 5831 5831 5830 5830 5829 5829 5828 5828 5827 5826 5826 5826 5825 5825 5824 5824 5823 5823 5823 5822 5822 5821 5821 5821 5820 5820 5819 5819 5818 5817 5817 5817
5823 5824 5823 5824 5824 5824 5824 5828 5828 5828 5829 5829 5829 5829 5829 5829 5829 5828 5828 5827 5827 5826 5826 5826 5825 5825 5824 5824 5823 5823 5822 5822 5822 5821 5821 5821 5820 5819 5819 5819 5818 5818 5818 5817 5816 5816 5816 5815 5815
5817 5818 5819 5820 5819 5819 5820 5824 5822 5823 5824 5824 5825 5825 5825 5825 5825 5825 5824 5824 5824 5823 5823 5823 5822 5822 5821 5821 5820 5820 5820 5820 5819 5819 5819 5818 5818 5817 5817 5816 5816 5816 5815 5815 5814 5814 5813 5813 5812